Theta_e
301 301 300 300 300 300 299 300 300 300 300 295 294 298 297 297 292 304 307 314 310 303 295 299 296 294 297 302 300 300 298 298 298 297 297 296 298 297 297 296 295 296 296 295 294 295 290 293 291 294 295 295 296 293 294 296 297 298 292 296 291 291 285 284 285 291 293 295 297 295 294 294 292 293 292 289 288 289 287 286 287 283 284 282 282 279 284
301 300 300 300 300 299 299 299 299 300 300 296 296 296 295 296 296 300 306 310 310 299 288 289 292 295 298 298 298 302 300 296 294 296 296 296 294 295 294 295 296 294 295 294 292 295 286 292 292 291 292 292 294 293 294 296 287 294 292 291 294 287 289 287 282 283 285 289 292 292 292 292 289 289 292 292 292 290 288 288 286 281 282 284 282 276 284
300 299 299 299 299 299 299 299 299 299 300 299 297 293 295 293 293 295 299 305 303 294 298 294 293 294 294 295 294 296 297 300 299 298 296 298 296 294 292 296 295 293 293 292 292 294 291 287 294 293 293 293 292 292 292 294 293 292 294 293 297 289 287 285 279 276 275 276 277 280 283 284 287 288 288 290 289 288 287 283 285 280 283 285 281 280 288
300 300 300 299 299 299 298 298 299 300 300 299 296 292 290 291 284 292 294 298 298 296 298 297 296 293 293 292 293 295 293 297 299 300 298 299 298 297 297 294 293 291 291 289 290 290 293 289 288 290 290 292 290 286 289 288 289 290 292 289 293 287 286 286 285 282 280 282 284 287 287 286 283 285 287 287 289 289 287 285 281 279 283 282 284 285 285
300 300 301 300 300 299 300 300 299 300 299 299 295 290 291 291 286 289 287 294 294 293 295 293 295 292 296 289 294 291 293 294 294 300 293 296 296 295 296 293 292 290 290 289 289 292 291 293 289 289 290 292 294 289 290 288 288 289 289 290 287 286 284 285 285 285 285 286 286 289 288 284 285 284 284 287 286 286 284 281 278 285 281 276 283 285 283
300 300 300 300 300 299 300 300 299 299 299 301 295 288 290 285 287 289 290 289 288 289 288 292 290 291 293 291 294 290 291 292 289 293 295 295 295 292 293 294 294 292 290 289 286 288 288 289 286 290 289 290 291 289 288 287 287 289 289 290 289 285 282 285 285 284 286 287 287 288 287 285 285 285 284 284 285 285 282 282 285 284 279 276 282 284 282
301 301 301 300 300 300 299 299 300 299 299 299 295 287 286 287 287 287 290 286 286 287 287 287 289 289 290 289 290 290 290 289 292 291 291 292 290 294 286 288 285 286 287 288 285 286 282 283 288 286 286 283 284 285 287 286 286 288 287 288 288 285 281 285 284 282 283 285 285 286 284 283 282 282 283 284 284 283 284 284 285 284 282 284 284 284 284
301 301 301 301 301 301 300 300 300 301 300 298 291 288 286 285 286 284 286 286 284 284 285 286 286 286 288 285 287 289 289 288 290 291 290 286 288 293 288 285 284 284 285 287 285 286 286 285 283 286 284 283 286 283 285 285 286 285 284 286 286 286 279 285 280 279 279 282 283 283 283 281 279 281 282 282 282 282 283 282 282 283 282 283 282 282 281
301 301 301 301 301 301 301 300 301 301 299 293 290 287 290 290 290 290 285 284 283 283 284 284 285 284 285 284 287 287 287 287 289 288 290 288 287 288 285 284 284 284 284 284 284 287 284 285 285 284 284 282 285 282 283 285 280 283 283 285 284 285 279 284 280 276 275 280 280 280 281 279 278 277 279 279 279 278 280 280 283 282 280 282 282 280 280
301 300 300 300 300 301 301 300 301 300 300 294 292 286 290 289 290 290 288 282 286 281 283 282 283 279 283 286 285 285 283 282 286 284 286 284 286 285 284 284 283 283 283 282 285 287 287 286 286 287 285 286 284 284 284 284 282 282 282 285 281 282 280 278 277 274 273 278 279 278 277 275 272 274 277 279 280 281 282 284 285 284 284 279 277 278 283
300 300 300 300 300 300 300 300 300 301 299 294 291 288 289 288 287 287 288 280 280 282 283 281 281 282 283 283 282 281 282 284 285 282 283 283 284 285 284 282 281 280 281 285 290 289 288 289 288 289 287 285 284 284 285 285 285 283 281 281 281 282 280 278 280 273 273 277 276 276 272 266 268 281 284 283 280 280 279 279 281 282 283 281 282 281 280
300 300 300 300 300 300 300 300 300 301 299 297 296 292 292 291 291 289 284 278 279 282 281 279 281 282 281 281 282 281 281 282 282 283 281 282 284 284 282 281 282 278 288 288 289 288 289 289 287 286 285 284 284 284 284 282 283 286 285 281 279 278 279 277 279 274 272 275 272 271 265 267 277 282 283 282 281 281 280 280 281 282 282 279 280 280 281
302 302 302 302 302 302 301 300 300 301 301 297 297 291 292 293 291 287 284 281 276 279 277 278 281 281 282 281 280 281 282 282 282 282 282 281 280 282 282 282 281 283 288 287 287 285 281 278 280 280 280 282 283 283 282 282 282 284 284 284 281 277 277 277 275 277 274 272 271 264 264 276 275 279 281 282 281 281 280 278 281 282 282 282 281 281 281
302 302 302 302 302 302 302 301 301 301 301 298 295 294 293 293 289 288 284 280 278 281 280 279 280 279 280 280 281 281 281 280 281 281 279 282 280 280 283 285 285 287 286 287 283 282 276 277 271 273 273 272 271 271 276 280 282 282 282 283 283 280 279 277 272 277 269 271 270 269 275 273 276 277 279 280 278 279 278 273 278 281 282 282 282 281 280
302 302 302 302 302 302 302 302 301 301 302 299 297 295 293 294 294 290 289 284 277 281 281 275 279 280 280 280 281 279 279 279 279 279 281 281 279 283 284 285 285 286 287 283 280 281 275 272 267 268 268 268 263 266 274 269 276 276 278 280 282 281 276 277 273 269 276 268 268 268 268 264 271 279 280 282 281 282 281 279 274 282 279 280 280 279 280
302 301 301 301 301 301 301 301 301 301 300 300 297 295 293 295 295 295 290 284 281 275 279 282 284 281 280 280 281 279 278 279 278 278 278 279 279 282 284 284 284 286 284 282 280 275 272 268 266 266 265 264 267 264 266 271 270 273 276 277 277 279 280 277 275 272 273 271 268 266 265 267 275 275 280 280 281 281 280 277 272 278 276 278 278 279 281
301 301 301 301 301 301 301 301 301 301 301 300 296 295 292 296 294 292 288 285 283 278 286 285 284 283 280 279 280 279 281 278 280 275 274 277 279 278 280 281 284 284 283 280 277 274 271 266 264 266 266 265 264 267 268 268 264 268 273 274 273 273 276 276 272 271 271 270 268 266 271 269 275 275 280 281 281 281 278 267 268 276 278 279 278 278 278
301 301 301 301 301 301 301 301 301 301 301 302 298 294 294 296 295 293 289 286 282 281 285 286 283 280 279 280 279 281 282 279 279 279 277 276 273 277 278 278 278 283 285 276 276 273 272 268 267 268 267 272 270 269 265 269 260 267 269 273 271 271 271 274 269 270 270 271 269 271 271 278 279 279 282 281 282 279 269 265 273 277 279 280 279 279 280
301 301 301 301 301 301 301 301 301 301 301 301 299 296 295 296 295 294 291 286 284 279 287 288 288 284 286 287 282 283 283 282 281 278 275 275 278 276 277 276 282 275 281 274 276 272 271 270 271 268 268 269 271 266 271 266 268 269 270 268 267 267 266 268 272 270 269 270 268 268 271 278 281 279 280 281 277 269 269 277 278 279 279 281 279 279 280
301 300 301 301 301 301 301 301 301 301 301 301 298 292 295 295 294 294 289 284 286 283 286 285 287 284 286 283 281 280 281 281 283 279 277 275 277 277 279 275 280 275 274 277 271 276 271 269 271 271 269 271 271 273 268 270 274 270 270 273 271 271 267 268 269 270 271 270 267 267 263 274 276 279 278 280 273 275 278 279 280 281 280 280 279 279 279
301 301 301 301 301 300 301 301 301 301 302 302 300 293 291 296 295 294 295 291 286 282 284 290 289 288 288 286 287 286 284 280 281 279 281 281 282 280 271 273 277 276 272 276 269 273 273 269 272 269 272 272 272 271 268 267 268 276 275 273 272 277 269 269 271 274 267 267 265 265 273 277 278 277 274 279 279 282 282 281 279 281 281 280 280 280 281
301 301 301 301 301 301 301 301 301 301 302 302 300 294 290 294 295 294 293 293 287 284 285 290 291 290 291 292 291 290 289 288 288 288 283 280 283 281 280 276 273 275 274 275 272 271 272 269 268 266 268 270 270 269 267 268 267 271 269 273 267 276 272 274 270 275 271 269 272 276 277 279 280 279 279 280 282 283 282 281 280 279 280 282 280 280 281
301 301 300 301 301 301 300 300 300 301 301 300 299 293 289 292 293 296 291 286 287 287 289 288 290 289 291 291 293 293 292 293 292 290 288 284 280 282 280 280 278 279 278 280 277 277 276 272 270 275 270 274 271 269 265 271 269 270 269 276 275 279 280 279 275 274 279 279 279 281 280 280 280 282 283 282 282 283 283 282 280 282 282 282 280 280 280
301 301 301 300 300 301 300 300 300 300 300 300 299 293 292 293 294 291 287 287 285 282 285 287 284 282 284 285 290 292 291 291 291 291 292 288 280 280 283 284 284 280 278 280 284 280 276 274 274 275 271 275 273 271 269 268 270 273 272 272 275 277 278 275 273 275 273 268 278 278 278 280 280 281 282 283 283 282 282 281 281 281 282 280 280 279 278
300 300 299 300 300 300 299 299 299 300 300 300 299 296 292 290 293 291 286 281 281 281 276 281 283 287 290 293 294 291 292 292 293 291 291 290 285 281 280 284 286 282 280 282 281 277 275 273 273 272 270 276 276 270 276 271 271 277 270 272 274 273 280 274 274 274 272 272 276 278 280 280 281 281 280 280 281 282 282 282 281 280 278 277 276 276 276
299 300 300 300 299 300 300 300 299 299 300 300 298 291 289 290 293 293 289 288 286 284 277 277 282 288 290 289 287 290 293 292 291 290 290 290 290 288 287 286 281 285 284 284 282 279 277 275 276 275 273 273 281 273 273 276 275 278 274 273 277 277 277 270 275 272 275 277 278 279 279 279 280 281 282 282 282 282 282 280 278 276 275 274 274 274 274
299 299 299 300 299 299 299 299 299 299 299 299 297 293 291 293 294 291 288 287 283 278 280 277 282 281 282 285 289 289 291 291 291 290 290 290 289 289 288 286 285 284 283 281 282 280 279 277 276 273 276 275 280 277 277 275 275 273 273 276 279 277 272 276 274 271 271 272 275 278 273 273 278 280 281 281 279 278 278 276 275 274 273 272 271 272 272
299 299 298 299 299 299 299 299 299 299 299 299 297 294 292 291 292 293 294 291 286 279 279 278 279 279 284 278 286 289 290 290 290 289 289 289 289 288 287 285 284 282 281 280 275 275 275 274 273 278 279 279 276 274 278 278 278 274 274 276 279 275 276 276 273 272 271 277 279 280 279 278 279 280 278 275 274 275 276 275 273 271 270 270 270 270 270
298 298 298 299 298 299 299 299 299 299 299 298 291 288 287 290 294 294 294 294 291 286 282 281 281 279 277 281 286 286 288 289 288 288 288 288 287 287 286 285 284 283 282 281 280 278 276 276 280 277 275 281 277 273 275 271 271 269 273 278 279 280 281 279 278 278 279 280 280 281 279 277 279 279 274 272 271 273 273 271 270 269 268 268 268 268 267
298 298 298 298 299 299 298 298 299 299 299 294 286 285 282 284 291 292 294 293 289 286 280 278 275 279 283 280 279 283 285 287 287 287 286 286 286 285 285 285 284 285 282 280 280 276 278 278 279 281 281 284 277 275 272 273 271 273 278 279 280 281 281 281 281 279 277 281 281 281 280 280 276 272 271 270 269 271 271 270 268 267 267 267 266 266 267
298 298 298 297 298 299 299 298 298 298 299 289 286 281 278 278 286 293 295 294 291 286 282 282 277 283 279 281 280 281 284 285 285 285 285 285 285 285 286 285 285 285 280 281 280 279 280 276 278 279 282 281 279 274 272 272 270 273 277 279 280 280 280 280 282 282 281 281 282 277 274 275 273 271 269 268 268 267 267 266 266 265 265 264 264 265 265
297 297 298 298 298 297 299 299 299 298 294 287 284 283 285 286 290 292 294 294 291 285 280 276 276 277 277 279 279 280 284 285 285 285 284 285 283 285 284 284 281 284 283 280 281 280 278 280 279 279 278 282 281 275 274 272 270 272 278 279 281 281 281 281 281 281 282 276 274 274 276 275 272 273 273 267 266 266 266 265 264 263 262 263 263 263 263
297 296 297 298 298 298 299 299 298 297 292 292 296 294 290 293 295 295 295 290 287 283 284 279 274 276 273 274 275 275 282 281 280 282 280 285 281 284 278 283 282 282 285 280 277 276 280 280 280 277 280 283 277 275 272 272 273 278 279 280 280 281 280 281 278 273 271 269 273 274 275 275 269 266 266 266 265 264 264 263 262 261 260 260 260 261 261
297 297 296 296 297 298 298 297 296 298 297 289 284 286 290 291 295 295 291 288 285 284 284 278 274 274 274 275 272 276 283 279 278 281 276 283 283 282 279 280 281 277 281 278 280 279 279 279 277 278 279 277 279 274 269 274 278 278 280 280 281 281 279 275 272 271 268 266 266 266 266 265 266 265 265 264 263 263 262 261 260 258 259 259 260 260 260
297 297 296 296 296 297 297 297 292 289 286 286 286 289 292 294 295 295 291 287 280 278 278 277 278 274 273 272 272 275 280 279 276 280 277 279 284 279 281 277 279 274 277 283 278 278 276 277 280 275 272 278 274 270 272 275 278 279 279 279 280 277 272 271 272 267 264 263 263 264 263 263 264 264 264 263 262 262 260 259 259 258 258 259 259 259 259
296 296 295 295 296 295 292 293 290 286 283 284 286 291 295 296 296 292 290 286 283 278 277 276 277 274 275 270 270 275 282 277 278 279 278 277 276 280 280 278 273 277 281 278 274 278 275 280 277 271 277 272 271 273 275 278 278 279 279 279 279 276 275 273 269 262 261 260 260 262 261 262 262 263 262 261 261 259 259 258 258 258 257 257 257 257 257
296 295 295 294 292 289 284 285 289 287 286 290 291 295 295 294 290 289 287 284 283 282 278 278 274 274 276 274 274 275 279 272 278 274 274 274 273 277 276 276 272 278 275 275 275 274 278 283 276 272 273 271 273 278 279 279 279 279 279 275 268 265 263 262 261 262 260 258 258 260 261 260 260 260 260 260 259 258 257 256 257 256 254 254 254 253 254
294 295 291 286 283 280 280 284 284 289 295 294 293 289 287 287 280 281 281 278 281 280 277 278 275 275 277 275 270 279 278 274 278 273 271 273 274 271 275 275 274 276 269 272 274 280 276 274 273 272 273 277 278 277 277 274 269 265 266 264 263 262 261 260 259 261 259 260 261 259 258 258 258 260 259 259 257 256 257 257 256 255 254 254 254 254 253
292 288 285 285 282 280 281 282 291 295 292 289 285 282 278 279 278 275 275 277 278 273 278 276 274 277 276 275 274 281 277 274 272 273 270 276 273 269 274 268 276 275 270 270 272 280 271 272 273 272 271 275 275 276 267 264 262 262 261 261 261 260 260 259 259 261 264 264 262 259 259 261 261 259 258 256 256 256 256 255 254 254 254 253 253 253 252
286 282 281 280 280 283 286 290 296 289 285 281 280 279 274 278 275 270 277 271 272 274 277 272 278 277 278 275 273 273 280 275 271 270 272 272 278 270 272 270 274 272 267 268 270 275 270 267 268 269 269 274 276 268 261 262 259 259 259 258 259 259 259 257 257 257 256 256 256 256 255 255 255 255 254 254 253 253 253 253 253 253 252 252 252 252 251
284 281 281 280 281 281 285 286 282 280 280 277 275 274 273 271 273 273 273 270 270 270 274 274 277 276 279 279 277 273 280 277 270 274 275 271 278 274 268 267 273 267 265 265 271 266 263 261 263 265 270 275 275 263 257 257 256 255 256 255 256 256 256 256 255 254 253 253 253 253 252 252 251 251 252 252 251 251 251 251 251 251 251 251 251 251 253
285 285 282 283 282 284 285 283 281 278 276 277 272 269 272 270 271 269 272 269 270 270 270 275 273 275 275 277 276 277 274 274 272 275 273 269 276 271 267 267 270 266 264 269 265 263 265 263 261 263 266 268 257 253 255 254 253 253 254 255 255 254 254 254 253 252 252 252 251 252 252 252 250 250 251 251 251 251 251 251 251 251 251 251 252 252 252
290 284 282 278 280 280 280 275 277 276 271 270 267 265 268 265 269 269 269 272 269 269 270 271 272 279 276 276 273 274 276 277 274 273 271 269 277 273 267 266 265 263 267 264 264 262 261 262 261 267 269 262 252 253 253 254 254 254 254 254 254 254 254 253 252 252 252 252 251 251 251 250 250 250 250 249 249 249 249 250 250 250 250 250 250 250 251
283 283 280 278 277 277 278 269 277 270 269 269 268 265 266 263 267 268 265 269 268 268 272 272 273 274 271 275 274 273 274 277 278 270 269 273 270 267 268 264 267 269 268 264 263 262 264 260 265 270 261 252 252 253 253 252 253 253 252 253 253 253 253 252 253 252 252 252 252 251 250 250 250 250 249 248 248 248 249 249 250 250 250 250 250 250 251
279 276 275 274 272 276 272 267 274 269 267 268 271 267 268 266 269 269 270 271 272 272 274 275 275 273 271 269 272 274 277 270 277 271 268 271 267 269 266 266 266 265 265 264 262 261 258 260 265 264 259 252 254 252 252 252 252 252 251 251 251 252 252 252 251 251 251 251 250 250 249 249 249 250 249 249 249 249 248 248 249 250 250 250 250 249 250
276 274 273 269 267 272 270 267 268 264 269 271 268 267 270 271 271 271 270 268 270 269 272 273 273 273 269 268 271 272 272 271 270 270 271 270 266 265 268 266 267 264 262 261 258 260 265 268 271 269 258 255 254 252 251 251 250 250 250 250 250 250 249 249 249 249 250 250 250 250 250 250 249 249 249 250 249 249 249 249 250 250 250 249 248 248 249
277 277 273 272 268 269 270 266 266 268 268 269 270 271 273 274 271 271 266 267 272 271 272 273 274 273 271 268 267 268 267 269 269 271 271 266 265 268 271 267 263 263 261 260 259 259 263 268 263 254 253 253 251 250 250 249 250 249 250 249 249 249 249 249 249 249 250 250 250 249 249 249 249 249 250 249 249 249 249 249 250 250 249 248 249 249 249
273 275 273 267 266 269 266 268 265 261 259 262 261 259 259 262 268 266 264 263 271 273 272 272 269 269 269 269 270 270 268 268 268 268 270 268 269 264 264 263 262 262 260 261 264 267 268 262 255 253 252 251 251 249 249 248 248 248 249 249 248 248 248 248 248 248 248 248 248 248 249 249 249 249 249 248 248 249 249 249 249 248 248 248 247 247 247
275 272 270 269 266 264 263 262 264 270 264 259 259 260 263 268 271 268 262 260 270 273 274 273 271 271 267 270 269 270 267 271 265 266 269 266 264 262 262 259 259 258 261 262 267 265 262 258 254 251 250 250 250 250 250 249 249 248 248 248 248 248 248 248 249 248 249 249 249 249 248 249 249 248 248 248 247 248 250 249 248 248 248 247 247 248 248
269 266 263 261 262 262 260 261 265 265 261 260 261 262 262 266 264 260 261 265 267 271 273 276 275 272 269 268 264 266 266 268 267 268 265 264 264 263 261 257 257 259 265 261 258 257 254 252 251 250 249 249 248 249 248 247 249 249 248 248 248 248 249 249 249 249 249 249 248 247 248 248 248 248 248 248 249 250 249 248 247 247 247 247 247 247 248
266 265 262 262 264 264 266 264 266 264 264 265 265 264 264 266 265 264 262 264 268 270 268 267 269 266 266 265 264 262 264 268 266 266 265 264 262 261 261 262 265 265 260 257 255 254 253 252 252 251 247 248 250 249 249 250 248 248 247 246 247 247 247 248 247 247 248 248 247 247 247 247 248 248 249 249 248 247 246 246 247 247 247 248 249 249 250
266 264 263 260 259 258 260 262 263 264 265 265 266 263 264 264 262 262 264 267 270 270 268 264 265 265 264 263 265 264 264 265 264 262 260 261 258 260 259 265 265 261 259 254 252 252 250 249 250 250 249 249 249 248 247 246 245 243 243 243 243 244 244 245 247 247 247 246 246 245 246 246 246 246 245 246 244 243 244 246 249 250 251 253 254 254 255
Wind_Speed
5 4 4 3 3 3 3 4 6 8 9 3 2 1 3 3 2 2 2 9 14 12 7 6 5 7 4 4 2 2 2 3 1 3 1 0 1 1 3 6 7 6 9 7 8 5 6 6 9 5 4 9 4 4 5 3 2 2 3 3 0 3 1 3 9 10 10 14 11 5 1 1 6 7 2 2 7 10 6 6 4 5 2 6 7 12 1
5 3 2 1 1 1 3 2 4 6 8 2 1 3 3 1 1 1 3 2 11 8 10 11 11 8 6 5 6 3 4 3 2 3 4 4 2 3 1 3 5 5 2 2 5 1 3 3 5 5 2 3 4 4 7 4 2 2 2 2 4 2 3 3 6 8 7 8 7 4 3 2 1 6 5 6 8 10 9 7 1 6 9 14 12 13 3
5 4 3 3 2 1 2 3 3 5 6 3 0 2 1 2 1 1 3 3 3 9 3 5 9 11 13 11 12 11 5 4 8 7 6 3 5 2 3 6 2 3 2 1 1 4 9 5 2 4 5 5 3 2 4 4 3 2 2 3 2 2 3 3 8 9 10 10 10 7 2 3 4 3 3 5 6 7 5 10 9 14 5 15 11 13 9
7 7 6 5 3 2 1 2 2 5 5 5 2 0 2 2 5 2 1 0 1 2 1 2 5 8 9 10 11 10 11 4 2 6 7 8 6 8 7 2 2 2 3 5 6 8 5 7 2 2 2 1 1 1 2 4 2 1 3 1 2 1 1 4 8 10 11 10 8 3 3 5 8 7 7 10 9 6 7 9 9 9 6 10 7 9 10
6 6 7 5 5 3 4 4 5 5 2 3 2 1 1 1 3 4 4 1 3 2 2 2 2 6 4 5 2 14 15 10 4 4 4 1 5 1 7 4 4 3 5 7 9 10 10 8 7 10 11 4 1 3 2 2 6 1 1 2 1 1 5 7 11 12 12 13 11 12 8 11 9 10 11 10 11 12 13 10 13 9 12 13 10 13 11
7 6 6 6 5 4 6 6 5 4 5 2 1 0 1 2 0 3 3 1 5 7 6 4 2 1 2 7 2 3 4 5 8 3 1 3 1 5 1 6 7 6 4 1 4 4 9 6 7 3 2 3 2 1 3 4 5 1 1 2 2 2 9 7 10 9 13 14 14 10 7 6 9 12 11 14 14 13 15 16 15 12 14 14 11 15 16
7 7 7 7 6 6 6 5 6 4 3 3 0 2 2 1 1 1 3 3 2 1 3 4 3 4 3 2 3 8 9 10 4 1 2 1 1 3 6 3 4 4 2 2 2 3 4 3 1 0 3 1 2 2 3 3 4 5 2 1 1 1 7 9 4 8 9 10 10 8 8 6 8 10 12 13 15 18 18 19 17 19 19 18 21 22 25
9 8 7 6 7 7 5 6 5 7 7 3 2 1 1 1 2 2 3 5 4 1 2 1 1 5 3 4 5 3 6 14 7 1 2 4 4 3 6 0 4 4 4 1 5 6 9 9 13 0 3 4 2 2 4 3 1 2 2 2 3 3 5 3 0 8 8 7 11 11 11 9 11 11 12 15 17 19 17 17 18 18 18 20 22 23 22
9 9 9 9 9 8 7 7 8 8 5 2 1 1 1 1 2 1 3 2 2 4 1 2 1 1 2 5 6 2 6 7 1 4 4 4 9 1 2 4 2 3 3 0 2 1 3 1 3 2 1 4 1 2 1 6 3 5 0 0 2 3 4 4 4 8 8 6 11 12 10 8 12 12 14 19 19 18 14 16 12 14 15 18 19 15 14
10 10 10 10 9 10 10 8 8 9 5 2 1 2 1 2 1 1 1 2 3 4 3 2 3 4 2 2 1 1 2 1 1 3 4 8 8 6 6 4 2 3 3 7 3 3 4 4 5 4 4 5 5 4 7 7 4 2 2 1 3 3 3 5 5 11 10 12 9 9 6 8 12 14 18 20 20 19 20 18 17 19 19 14 13 13 2
12 12 12 12 11 11 11 10 10 11 6 3 2 1 2 2 3 2 1 3 1 5 4 3 5 1 5 2 4 2 2 2 4 4 3 5 3 7 4 3 2 3 5 2 4 6 4 3 4 4 5 8 9 8 9 11 10 10 3 4 3 6 7 10 7 9 5 10 9 2 3 12 15 4 6 10 15 11 15 14 15 13 12 5 2 1 2
14 14 13 13 13 12 11 11 12 14 10 4 2 2 2 2 3 2 2 4 2 3 4 3 5 3 5 2 3 2 4 2 3 3 2 2 2 2 2 1 3 3 2 4 3 1 2 4 5 6 8 10 11 12 12 13 13 11 10 10 7 8 8 11 7 10 11 6 1 8 16 15 4 3 2 2 2 2 9 14 13 15 1 3 3 4 4
15 14 13 14 13 13 13 12 12 16 15 6 4 4 3 1 3 2 2 2 2 6 4 3 1 2 4 6 3 4 2 2 2 2 2 4 4 2 3 4 6 3 4 3 3 1 3 5 7 7 10 9 8 11 15 16 16 15 13 14 11 9 10 8 6 8 3 3 7 10 8 2 5 9 6 3 1 8 9 13 15 9 4 7 5 6 5
16 15 16 17 17 16 15 14 13 15 17 10 6 4 4 4 5 3 4 2 2 4 4 1 2 4 6 7 5 3 2 3 2 2 3 4 6 6 5 3 2 3 1 2 1 1 2 0 2 1 2 1 1 2 9 12 14 15 15 14 12 14 7 4 8 6 9 7 12 16 9 14 13 14 8 4 5 3 4 7 4 5 4 6 4 5 4
16 17 16 14 15 15 14 14 15 14 15 12 6 3 5 5 5 3 1 2 2 3 7 5 6 10 10 6 6 5 4 4 2 3 2 1 2 4 4 1 1 1 2 2 1 2 1 1 1 3 2 1 2 3 4 1 2 2 5 6 8 11 13 7 8 4 8 6 8 8 6 10 3 2 2 1 3 1 2 3 7 4 1 1 2 1 3
16 16 17 17 16 17 17 17 17 15 14 14 6 4 6 6 5 3 2 2 2 2 7 10 6 7 7 6 9 9 5 4 4 2 1 2 4 2 3 1 0 3 4 4 1 2 0 1 3 1 3 2 2 2 3 2 3 1 4 1 4 7 11 9 10 9 8 10 9 9 10 5 4 4 2 3 2 2 2 2 8 2 5 2 2 1 3
17 16 17 17 17 17 17 18 18 18 17 16 8 7 6 7 7 6 5 2 3 6 4 8 8 5 4 3 4 4 5 4 5 2 2 2 3 0 3 1 1 2 5 3 1 2 0 2 1 1 3 2 1 3 1 1 1 3 1 4 7 3 4 6 8 9 10 10 10 11 5 5 1 3 4 3 2 2 2 12 6 1 5 3 3 4 5
19 19 18 18 18 18 18 18 18 18 18 19 11 8 7 8 9 6 3 5 7 8 6 8 10 6 8 6 4 2 5 2 2 0 0 1 2 1 2 1 2 2 5 2 3 3 6 3 5 5 4 2 3 2 4 2 1 3 0 0 1 1 1 6 10 11 11 14 11 9 9 9 10 10 12 4 2 1 6 14 2 5 7 7 4 6 6
20 20 20 20 19 19 19 18 18 18 18 19 8 6 6 9 9 9 5 5 8 8 6 13 12 12 3 4 1 4 4 5 4 3 1 1 3 4 5 1 1 2 4 5 1 5 6 5 1 1 2 3 3 4 1 2 4 1 2 2 1 2 2 3 5 8 11 10 12 11 11 6 5 4 2 6 2 5 11 1 5 4 5 4 8 8 9
19 19 20 21 20 20 20 19 19 19 18 21 12 7 4 9 10 13 10 7 3 9 8 11 10 14 9 10 6 5 2 2 5 4 4 5 1 4 1 3 1 4 0 4 3 3 4 6 6 2 4 6 4 3 1 5 1 4 2 3 5 3 2 6 6 3 4 5 7 8 9 1 2 2 4 4 5 5 1 3 5 6 4 6 7 8 9
21 20 19 20 20 21 21 21 20 20 20 20 14 7 6 9 12 11 10 9 5 7 10 9 8 13 12 14 15 13 11 10 9 7 7 3 4 4 5 4 5 4 5 5 7 6 4 5 4 3 3 3 3 3 6 1 4 6 5 6 6 1 7 7 6 4 8 8 9 6 3 1 2 3 2 1 4 5 8 9 13 10 8 6 5 6 7
22 22 22 20 20 21 20 22 22 22 22 21 17 6 8 7 10 10 10 8 7 10 1 1 7 11 14 15 12 11 14 16 15 10 5 5 4 9 3 4 5 4 3 3 2 1 1 2 2 2 4 4 0 6 3 2 7 2 3 1 5 8 11 7 9 3 5 6 8 1 0 3 5 5 9 11 13 11 9 8 8 9 8 6 5 8 8
22 22 23 22 21 23 23 22 22 21 21 22 16 7 9 7 9 9 8 6 3 3 1 4 2 4 4 5 2 5 11 11 10 8 10 7 6 5 8 7 8 2 2 3 6 7 4 6 6 3 0 3 8 4 1 8 8 2 4 7 6 5 7 2 4 4 7 9 11 5 8 11 13 10 7 9 10 10 8 6 7 7 8 6 7 8 8
22 21 23 24 24 24 24 24 23 23 24 24 17 9 9 8 8 6 2 3 5 6 6 6 4 9 12 14 11 7 9 10 12 12 9 9 10 5 4 7 1 1 2 6 2 4 2 2 2 1 6 4 4 6 8 9 10 6 6 8 6 12 8 3 7 8 9 10 11 9 14 14 12 13 12 10 7 9 9 8 8 8 6 4 1 3 4
23 23 24 24 24 24 24 23 23 24 24 24 18 7 3 3 7 11 9 6 5 6 7 4 15 16 11 9 8 11 13 11 8 13 11 9 10 8 10 11 12 12 13 7 4 4 2 4 3 2 9 5 6 9 8 8 9 9 8 11 6 8 8 8 11 13 11 14 17 15 13 14 14 11 11 13 13 10 9 7 3 2 3 2 2 1 0
21 23 22 24 24 22 23 23 24 23 22 22 17 8 11 9 10 11 7 3 1 1 6 8 5 2 1 8 12 13 11 12 12 14 16 15 15 14 14 4 2 2 1 4 5 8 6 5 5 5 7 6 8 7 9 10 8 6 11 13 11 4 5 4 5 9 12 16 18 18 18 19 17 16 13 11 12 12 9 1 2 2 2 3 2 3 1
21 23 25 24 24 25 24 25 25 25 25 25 15 8 8 7 11 13 10 9 5 5 7 7 3 2 1 9 5 5 8 12 12 14 14 15 16 12 10 11 11 6 7 3 1 5 5 6 6 10 8 5 5 7 5 5 8 5 7 15 7 5 12 5 3 11 13 13 14 10 8 10 13 12 10 10 1 1 2 2 2 1 1 1 1 1 2
22 22 24 25 25 25 24 24 23 24 26 24 15 7 8 9 11 11 10 10 12 6 1 3 2 3 2 3 5 7 9 13 13 14 14 15 16 13 11 11 8 7 8 8 3 5 7 7 10 5 2 3 6 9 10 7 4 7 11 13 8 12 15 10 12 12 13 15 14 12 12 15 15 13 3 3 1 2 3 2 2 2 2 1 2 3 0
22 23 23 23 22 25 24 23 24 25 25 19 2 3 2 6 7 11 11 11 10 9 6 1 1 2 4 2 4 6 6 9 10 12 13 14 14 13 12 12 12 9 6 7 6 4 6 9 6 5 4 6 5 6 4 6 8 10 13 15 14 16 15 15 16 17 18 17 15 12 8 11 13 4 5 3 1 1 2 4 3 3 2 1 1 1 3
21 22 23 23 23 22 26 25 26 24 22 7 5 2 4 4 9 12 12 11 9 3 4 5 6 5 1 2 3 4 7 9 9 11 11 10 11 13 14 13 14 12 8 10 10 9 8 6 7 7 7 7 6 2 5 5 8 10 16 18 16 14 13 13 14 15 17 16 13 11 10 7 2 5 4 4 3 1 3 3 3 2 2 1 1 2 2
22 22 23 24 24 24 24 24 24 24 21 5 5 3 5 5 10 14 20 13 11 7 2 2 5 1 1 2 3 8 10 9 10 9 12 10 10 11 10 8 12 12 8 8 9 11 5 5 6 8 8 11 8 5 7 5 9 8 17 16 15 16 15 16 15 16 16 16 13 1 2 2 3 4 2 3 3 4 3 3 4 3 1 2 2 3 3
24 24 24 23 22 24 23 24 25 23 11 9 10 9 4 4 2 13 21 15 12 5 5 4 3 3 3 2 1 2 8 9 6 5 4 6 8 9 9 9 6 8 6 6 6 3 6 6 8 7 7 11 12 3 5 8 10 13 15 13 12 13 14 13 13 14 13 3 2 8 10 7 7 7 3 6 4 4 3 4 3 1 0 2 2 3 2
24 25 24 24 22 21 21 23 27 20 10 14 18 5 4 8 13 20 17 11 7 3 3 3 5 1 2 3 1 1 4 3 3 6 6 7 6 6 4 5 6 5 9 8 6 5 3 7 8 11 9 4 3 3 5 9 12 18 18 14 11 10 12 12 8 1 2 2 2 10 11 4 4 3 5 5 4 3 3 3 2 1 1 1 2 2 2
22 23 24 24 22 20 22 24 25 23 15 4 2 10 8 5 14 21 14 9 4 2 3 4 3 5 3 2 1 2 7 8 6 8 4 6 4 5 4 5 7 4 6 10 4 2 3 2 8 7 1 6 6 3 5 12 17 18 14 14 13 13 8 3 1 4 2 3 2 3 4 4 5 4 4 4 4 4 3 2 1 2 2 1 1 1 2
20 22 23 23 22 21 20 18 10 8 8 6 7 6 10 16 17 25 20 8 5 3 3 3 3 6 3 1 6 3 4 4 6 9 8 4 4 7 5 4 5 6 5 5 4 8 10 8 5 4 8 3 4 5 9 12 14 12 13 13 14 4 3 3 6 4 3 3 2 2 4 4 5 4 4 4 3 2 1 0 1 1 2 2 3 3 2
18 21 22 22 20 14 8 8 7 6 5 7 6 10 22 20 22 16 16 6 4 6 7 5 7 9 8 7 7 3 6 2 2 4 2 2 1 1 3 4 4 6 4 6 5 8 10 7 4 6 5 7 10 10 11 11 16 17 14 15 9 9 8 8 2 6 3 2 2 3 3 2 3 4 4 3 3 2 0 2 2 1 2 3 3 3 4
18 18 20 17 7 3 6 6 4 6 6 3 6 14 21 16 5 8 6 3 2 1 4 8 7 9 11 6 2 2 7 5 4 2 3 4 4 2 4 4 7 2 2 4 6 10 10 7 7 9 9 11 12 11 14 13 14 17 17 7 3 3 4 4 6 7 7 4 3 2 3 2 2 2 3 3 2 0 1 2 2 3 4 5 5 4 4
19 16 6 2 3 5 4 5 5 6 13 18 16 7 8 8 3 3 0 2 1 4 2 2 9 3 3 6 5 6 6 3 3 6 2 2 4 2 3 3 4 5 6 5 7 4 2 2 6 8 12 13 13 9 9 7 2 3 3 4 4 5 5 6 5 7 3 1 4 4 4 4 4 4 4 3 1 2 3 2 3 3 4 5 5 6 7
14 4 4 4 4 6 5 2 8 21 12 6 3 3 3 0 3 4 5 2 2 4 3 7 7 7 8 8 1 4 5 7 6 4 5 7 5 3 4 3 4 4 4 1 4 7 4 5 5 8 11 12 11 11 4 3 3 3 4 4 5 5 5 4 3 3 4 4 0 2 2 3 5 4 2 1 2 3 3 4 3 4 4 5 6 6 7
3 5 5 4 5 3 2 6 21 13 3 4 0 3 3 3 4 3 3 3 3 2 4 8 7 9 14 15 11 10 4 8 10 8 5 2 2 3 1 1 2 4 4 6 2 3 3 4 2 3 9 9 12 3 4 4 5 4 4 6 6 6 5 5 4 3 4 4 4 3 3 2 1 0 2 2 3 5 5 4 5 5 5 5 5 6 7
2 2 2 4 2 2 2 4 3 3 3 3 2 0 2 2 3 1 3 6 5 2 1 2 6 7 7 7 9 10 4 2 2 3 3 5 1 5 2 3 1 2 2 3 1 3 2 1 2 5 9 8 9 4 4 4 4 5 4 5 5 5 5 4 4 3 3 2 2 1 1 1 1 1 2 3 4 5 6 6 6 5 6 6 7 8 8
5 4 2 4 2 3 5 1 2 2 0 1 3 5 5 2 2 1 2 6 6 3 3 5 10 13 12 15 11 6 0 0 2 2 3 4 4 4 3 0 0 4 5 2 3 1 2 3 2 6 6 5 1 3 5 6 4 5 5 4 5 4 4 3 3 3 3 2 1 2 2 1 3 4 4 5 5 5 6 6 6 7 7 7 6 8 8
9 10 6 3 2 0 1 3 2 2 4 2 2 2 2 3 5 6 3 1 1 2 2 3 1 3 5 4 3 1 2 3 2 1 2 4 1 2 2 1 2 3 4 2 2 2 3 5 5 10 4 2 3 4 4 4 6 5 5 4 4 4 3 3 2 1 1 1 2 2 3 3 5 5 4 4 6 6 7 6 7 8 7 6 7 6 7
4 1 2 1 3 3 3 6 2 3 2 2 5 8 5 3 3 2 2 4 3 2 5 10 8 11 9 2 5 3 2 1 2 2 0 0 3 3 3 4 4 1 4 0 2 4 6 4 9 7 1 2 3 4 6 6 5 5 5 4 4 3 3 3 2 2 1 1 2 2 2 4 5 5 4 4 5 8 8 8 7 6 6 6 7 7 8
5 1 2 2 3 3 4 4 2 3 8 7 4 4 6 11 7 7 9 3 6 8 10 8 9 10 6 2 3 1 2 3 1 4 3 3 2 2 3 3 2 1 3 3 1 2 2 8 7 6 6 5 6 6 4 5 6 6 6 4 3 3 3 3 2 1 1 2 3 4 5 5 5 6 5 6 6 6 7 9 8 6 6 6 7 7 9
5 5 3 3 4 3 4 2 2 4 2 3 5 4 5 6 6 8 4 3 5 3 11 11 8 8 6 1 6 5 3 3 3 3 2 2 4 4 2 1 2 2 1 1 3 8 12 11 9 6 2 9 9 7 7 7 7 5 8 6 6 4 3 2 2 2 3 3 3 4 5 4 5 5 7 6 6 7 7 7 6 6 6 6 8 9 9
2 1 2 1 2 2 2 5 5 4 3 3 4 7 9 7 5 3 3 3 6 4 6 4 6 6 10 4 3 2 1 1 3 2 4 2 4 1 2 3 4 4 5 6 6 5 8 10 3 1 5 8 10 8 8 6 6 5 5 4 4 2 2 2 3 3 3 3 4 4 5 5 5 6 6 6 7 7 7 6 7 6 6 8 9 8 8
4 1 2 4 4 3 6 5 2 1 1 1 0 1 2 1 4 3 2 0 4 8 11 9 6 3 4 2 2 4 3 1 3 2 2 2 2 2 2 1 3 2 3 5 11 10 8 1 3 5 5 7 9 10 7 7 4 6 4 4 3 2 3 3 3 4 3 3 4 5 6 5 5 5 5 7 7 9 7 7 8 6 6 7 7 8 8
2 3 4 3 0 1 0 2 3 8 2 1 1 0 2 6 6 4 2 1 7 9 7 9 6 6 3 3 4 4 3 3 4 4 3 1 4 5 5 5 3 4 5 8 10 5 3 2 4 7 7 7 6 6 6 6 6 6 5 5 4 2 2 3 4 4 3 3 4 5 5 5 5 5 6 7 7 8 7 6 6 7 7 8 9 8 8
3 2 2 4 1 1 1 1 3 3 1 1 1 2 1 1 3 1 2 4 3 6 4 4 2 3 2 3 2 2 2 2 2 2 4 5 4 2 3 3 4 7 8 5 3 2 2 4 6 7 7 7 5 6 7 7 4 4 4 4 2 3 2 2 3 3 4 4 4 5 5 5 4 4 6 7 7 6 7 8 8 9 10 8 8 8 8
2 2 1 0 3 3 5 3 7 6 5 7 6 5 5 6 4 5 1 3 5 5 4 5 4 3 2 1 2 3 2 3 3 5 4 4 2 4 5 8 10 8 2 0 0 1 5 4 6 6 7 6 6 7 6 6 5 4 3 2 1 1 1 2 4 4 4 4 3 4 5 6 6 6 5 5 6 6 8 10 10 8 8 8 6 8 8
2 2 3 1 2 3 2 1 2 1 2 1 4 2 3 2 2 3 2 4 6 11 9 3 4 3 2 5 3 2 1 2 1 2 1 4 3 5 6 10 7 2 5 5 4 4 5 4 5 8 8 8 7 6 6 4 3 2 1 1 2 2 2 2 3 3 4 5 5 4 6 6 6 5 3 5 5 4 6 8 8 6 5 5 6 7 7
Wind_Direction
147 162 172 147 139 110 67 33 21 31 16 52 9 228 142 174 157 56 332 171 171 167 205 195 197 217 251 52 306 155 269 159 197 107 126 169 215 325 249 231 241 245 252 256 267 238 252 238 246 234 231 266 301 337 347 3 23 359 325 319 123 68 262 256 254 255 262 271 260 124 146 252 273 240 215 312 230 224 260 280 354 287 262 229 239 238 327
174 169 187 200 114 108 81 41 43 33 48 55 287 151 159 109 130 143 358 215 193 178 192 205 206 222 236 224 242 190 199 142 115 163 201 176 163 202 226 1 225 267 86 114 245 100 300 242 255 278 58 264 117 340 28 2 52 315 231 261 273 300 243 307 299 288 269 252 246 207 84 111 296 304 304 269 274 282 262 273 108 260 223 246 250 258 219
195 183 212 214 190 117 102 61 36 51 36 48 304 122 98 92 356 305 305 4 228 210 242 221 206 214 224 230 236 238 228 223 239 224 235 204 197 144 247 239 160 219 116 263 206 195 229 281 224 248 255 269 105 8 27 12 102 20 355 38 28 266 271 282 280 276 276 274 271 283 353 15 333 264 285 335 338 329 318 258 247 252 193 222 240 258 264
193 199 197 199 195 157 96 67 56 67 49 55 63 81 107 202 160 218 51 20 21 300 284 311 223 213 220 232 239 246 249 236 116 187 259 230 229 235 248 44 138 199 216 248 241 250 199 203 255 231 226 224 350 209 11 46 110 240 145 330 196 230 187 203 239 260 271 282 295 225 223 275 272 277 289 289 290 280 276 290 273 261 312 278 275 288 298
215 214 209 210 218 180 143 127 106 130 94 105 110 57 224 315 139 170 186 99 268 217 37 168 249 211 213 226 211 240 240 246 281 185 221 8 196 191 228 193 217 229 226 236 257 252 251 217 241 251 266 256 196 23 93 85 26 333 172 337 88 205 254 231 248 251 262 270 273 283 279 271 273 278 273 266 265 270 271 258 259 291 302 271 266 270 274
220 226 221 218 219 193 167 187 156 154 160 140 133 87 254 170 264 70 323 210 193 194 236 175 216 277 207 224 344 259 223 204 219 66 50 76 20 198 307 212 234 257 252 158 251 219 250 216 229 234 230 268 295 145 64 57 334 12 66 307 181 250 266 269 270 272 273 279 285 292 283 256 272 274 274 271 268 266 257 256 265 278 265 273 294 293 281
222 227 226 221 219 207 203 167 132 148 121 108 6 128 291 62 33 49 314 184 351 27 70 77 179 226 193 226 258 248 234 234 222 211 12 42 351 241 232 112 25 43 26 97 259 352 343 258 176 19 353 15 349 298 276 156 31 40 3 14 196 256 255 261 319 300 290 288 287 291 287 293 281 269 269 270 266 262 263 271 274 264 262 269 275 273 272
220 221 224 231 226 221 198 198 167 132 105 77 77 18 166 192 147 166 58 74 85 48 48 70 64 215 202 220 217 217 233 245 236 48 191 256 243 45 274 98 70 78 79 142 246 268 277 283 274 123 150 259 197 267 247 302 21 38 353 309 294 269 274 9 148 299 280 286 290 287 285 291 281 269 271 270 267 268 271 276 266 269 266 263 262 262 266
222 224 220 221 225 221 216 203 169 160 122 45 81 9 37 49 26 29 132 108 146 91 101 120 145 200 219 232 254 274 243 265 281 222 18 258 260 307 180 119 141 152 132 179 228 224 159 173 232 123 206 247 36 48 293 86 313 317 238 194 290 323 275 323 333 297 273 264 280 287 292 278 271 269 261 257 256 263 255 253 253 257 262 263 267 264 263
222 224 223 228 229 215 208 210 186 179 143 115 107 118 169 73 302 34 351 104 136 133 124 131 136 224 210 207 152 149 48 49 211 202 77 50 62 76 93 42 32 273 270 264 245 176 165 163 174 181 201 223 248 217 240 272 265 297 241 249 262 233 275 289 289 282 260 277 275 290 305 301 275 241 240 246 252 247 253 254 254 251 261 264 257 264 351
219 220 219 219 219 226 215 208 196 173 145 176 142 156 162 164 135 102 357 137 273 156 159 203 192 314 110 21 135 83 147 35 44 199 167 100 90 70 64 42 344 280 261 327 90 147 195 217 234 233 244 238 246 239 234 240 231 219 223 257 220 225 237 257 257 262 275 279 295 338 290 258 248 301 279 251 261 267 267 263 259 259 250 273 321 338 121
215 215 214 214 217 224 221 210 205 183 181 188 115 139 170 126 76 69 158 168 188 131 196 198 187 189 159 143 105 140 147 175 106 38 174 135 204 7 87 233 217 256 88 90 135 146 234 250 243 264 254 260 256 249 245 245 240 221 218 225 241 240 246 255 256 259 267 276 26 284 252 253 310 33 328 5 12 288 255 268 268 266 238 98 213 160 168
216 210 214 220 218 219 221 219 213 179 177 156 170 187 176 235 126 151 152 146 192 173 172 239 219 165 136 136 146 200 218 121 110 221 197 231 264 226 222 204 221 242 70 99 76 308 282 285 281 266 262 258 248 247 247 243 245 234 224 220 227 236 239 249 241 249 295 209 230 247 249 68 278 283 259 140 247 246 269 272 261 266 248 238 204 187 158
235 231 221 218 216 216 214 215 219 198 176 158 174 175 143 178 155 160 163 152 219 177 185 87 173 174 179 207 206 189 144 254 198 163 256 221 210 234 235 219 201 61 219 103 19 205 263 247 294 300 256 58 291 266 239 243 242 242 237 229 224 236 254 243 267 226 248 244 236 240 318 318 297 285 276 166 254 236 217 271 311 121 222 177 203 161 163
228 228 236 240 234 228 231 233 222 213 183 172 153 137 162 185 161 152 156 95 181 193 188 196 202 200 201 207 194 207 213 224 193 239 192 37 226 232 214 137 82 159 164 196 188 85 167 84 339 269 322 232 250 244 357 313 349 34 298 275 235 229 230 231 242 258 231 241 258 275 267 265 290 60 284 257 246 2 283 63 295 143 137 37 171 161 196
234 230 230 228 228 228 225 224 226 220 199 190 161 173 186 180 139 118 165 154 152 250 226 199 160 150 173 196 191 179 194 184 192 173 231 204 228 257 210 161 228 136 84 75 49 90 205 152 239 159 240 216 269 66 285 46 321 126 39 2 200 228 228 233 233 252 257 251 247 244 255 255 107 252 161 241 148 227 218 290 290 67 183 232 157 176 214
239 238 235 232 228 228 226 225 223 222 221 189 183 184 199 179 173 176 164 178 202 218 60 171 166 126 110 119 129 204 203 191 173 167 223 220 201 307 312 8 22 166 166 92 191 136 106 94 15 267 315 157 95 250 359 323 271 310 133 70 70 130 210 200 230 234 232 246 248 254 253 256 302 231 271 213 136 186 274 294 293 117 248 235 196 237 256
238 238 237 236 236 233 230 229 225 223 223 205 180 187 201 184 195 157 184 200 211 247 208 161 159 179 193 172 174 142 102 120 100 121 201 76 60 200 226 45 158 257 184 145 204 151 212 171 199 228 231 224 159 337 256 128 148 226 188 119 208 142 268 206 225 230 239 240 252 261 261 259 262 269 266 121 184 208 269 257 328 181 212 219 204 237 251
234 234 235 234 233 233 233 232 227 227 223 218 189 204 206 183 186 186 181 198 212 238 182 181 189 204 161 82 150 153 187 165 153 154 168 114 225 202 151 227 191 169 174 169 181 175 204 218 132 179 202 245 134 213 165 124 227 43 187 247 202 223 148 279 232 227 233 235 253 250 270 259 226 234 173 129 164 232 249 326 138 235 233 211 203 231 246
245 244 238 236 234 233 232 229 228 228 226 225 195 201 170 177 185 187 184 206 205 237 218 184 188 206 196 192 181 166 137 145 184 171 186 192 140 105 130 209 223 99 2 144 201 205 157 217 204 175 211 223 232 143 352 231 142 183 205 219 253 216 166 233 225 204 239 242 253 263 260 6 69 172 50 212 215 275 86 282 255 189 229 251 230 222 246
241 241 240 239 238 234 231 229 226 226 225 225 209 192 207 185 190 205 201 194 205 236 242 191 204 215 204 216 207 193 184 197 180 200 208 195 160 138 195 222 177 144 188 174 187 216 179 209 169 188 235 203 229 110 215 164 298 258 215 236 258 186 260 251 247 172 254 246 235 219 263 217 189 172 194 210 227 306 304 304 298 301 298 278 275 243 229
241 241 237 236 237 234 231 229 228 225 223 222 214 176 217 185 187 189 204 199 207 224 283 202 204 222 219 221 214 200 210 220 208 186 190 196 195 204 222 108 173 164 188 121 80 29 283 161 37 132 211 213 309 221 150 193 247 223 354 126 264 183 220 222 254 214 214 241 264 200 163 212 198 204 254 261 271 271 259 257 264 277 279 276 276 286 291
241 242 242 238 234 236 233 230 227 226 226 227 220 184 210 160 185 192 151 202 254 319 286 234 205 264 294 263 230 223 228 226 218 197 193 207 215 214 219 217 230 173 174 195 191 207 189 150 208 178 206 211 200 212 231 218 258 183 225 197 251 232 237 243 276 246 251 268 261 268 268 264 275 262 238 261 272 272 273 268 275 256 266 283 290 299 296
242 238 238 240 240 239 236 231 228 228 224 222 214 173 202 178 164 125 138 202 192 236 239 220 233 233 217 224 212 210 228 225 220 215 202 198 226 217 225 233 91 114 223 218 253 199 164 154 230 189 227 205 110 217 219 228 224 224 252 259 231 242 229 214 241 258 272 263 261 228 248 261 261 265 266 264 242 257 270 271 260 272 295 316 335 296 298
241 242 243 242 240 238 239 238 236 233 229 229 225 196 126 124 164 164 161 190 203 184 230 193 221 231 226 212 213 217 219 216 201 215 211 198 209 205 221 208 188 206 221 195 95 77 84 182 223 186 231 218 176 234 213 236 251 168 228 240 249 262 199 222 236 247 239 256 259 260 257 256 260 265 274 271 267 256 243 247 276 320 68 69 56 27 264
249 248 243 241 241 237 237 235 234 234 233 230 221 164 191 190 169 177 188 225 62 180 226 240 259 53 150 194 211 217 201 202 201 213 216 213 213 215 228 213 335 333 352 130 172 207 207 223 217 227 227 245 184 234 230 203 242 184 212 241 225 230 105 215 182 231 239 251 259 264 268 269 266 259 250 248 257 266 271 318 11 28 92 91 83 64 76
240 241 243 240 240 242 237 233 233 229 229 229 222 184 183 179 172 176 184 175 165 261 216 240 228 278 206 216 208 95 164 189 198 210 220 222 224 220 221 229 237 207 205 204 211 218 217 221 204 228 206 228 210 229 233 231 216 212 225 245 220 218 239 197 157 254 255 250 251 241 257 270 270 253 232 243 256 302 233 142 139 80 36 47 26 122 122
247 243 245 244 237 236 239 241 241 237 235 231 225 199 180 179 189 196 188 178 186 226 127 197 199 237 103 269 211 187 183 188 194 203 213 217 219 217 220 226 222 222 212 201 190 202 209 211 226 211 215 223 221 234 219 234 234 241 238 244 199 220 232 223 236 232 253 249 242 228 234 259 263 278 106 99 101 227 223 196 154 116 99 21 345 328 252
249 248 244 243 244 243 236 229 232 232 231 229 129 140 150 217 211 197 196 194 201 228 230 196 86 60 228 245 70 181 193 180 190 200 208 213 210 210 214 215 219 216 195 206 225 203 207 223 204 192 202 170 192 236 186 212 211 224 227 228 218 225 229 229 238 250 255 259 264 255 238 247 265 279 110 122 73 165 137 113 109 113 105 72 1 322 301
247 247 248 244 238 237 243 242 235 231 224 190 122 130 186 227 198 207 196 190 190 153 200 211 230 235 15 49 229 175 158 189 196 199 203 204 207 211 213 214 224 219 200 208 210 228 214 232 229 224 214 159 205 215 216 221 227 231 240 238 230 232 226 232 239 241 249 252 254 261 265 269 51 74 97 112 92 102 152 140 122 135 102 44 323 297 305
248 246 245 245 242 239 234 235 237 236 232 164 156 151 180 234 207 188 191 184 173 174 208 202 225 59 308 232 160 185 180 178 192 196 205 201 205 205 211 205 225 218 216 215 218 229 216 220 212 222 200 186 201 213 223 221 238 237 242 233 232 237 234 235 231 233 244 253 264 46 92 201 124 76 163 147 126 120 126 132 118 96 69 340 287 302 300
249 246 246 245 245 243 240 235 233 229 213 160 197 202 190 254 114 161 179 176 154 152 164 192 207 176 225 241 211 281 186 183 164 176 202 192 221 218 224 203 222 211 211 232 228 243 216 229 231 228 213 202 204 226 206 225 234 240 245 239 226 230 237 239 239 242 243 283 10 293 268 233 156 216 229 126 129 113 128 126 113 78 64 262 299 277 274
249 250 248 245 243 243 242 239 235 227 195 204 220 259 324 298 164 156 162 137 134 174 173 193 201 162 192 230 100 285 151 106 171 180 219 192 215 187 220 200 216 224 216 230 211 239 203 218 225 239 228 139 212 214 211 221 231 239 244 241 240 233 241 243 255 21 66 47 169 223 254 288 131 90 101 128 127 134 122 119 70 22 346 250 221 201 203
246 246 248 249 245 242 245 245 243 232 219 165 185 230 211 174 171 150 141 144 140 156 159 177 187 200 218 45 80 187 164 168 187 172 208 180 176 184 199 169 197 214 197 207 216 210 229 221 231 240 82 208 204 226 233 237 234 246 250 249 248 251 251 203 172 200 126 85 64 45 55 93 98 108 131 136 136 112 103 88 29 349 301 255 263 258 300
249 251 245 244 245 246 244 245 247 229 212 197 226 228 165 169 162 157 149 160 131 198 146 213 187 209 189 175 218 187 164 130 166 185 196 175 151 196 188 188 179 195 217 137 227 225 235 219 203 214 224 210 211 230 234 242 246 243 240 241 247 232 72 274 240 159 127 110 101 119 98 117 146 168 172 161 150 147 101 153 5 338 311 307 312 306 322
244 247 249 245 239 240 247 244 222 206 209 207 216 157 166 174 164 168 177 175 158 166 179 202 174 202 178 204 200 175 139 178 116 121 162 113 27 222 197 190 228 205 121 181 223 207 225 204 148 231 206 219 222 216 237 235 243 247 248 249 236 175 219 237 172 121 124 93 123 132 126 134 176 177 144 162 159 134 82 318 298 329 300 298 307 327 319
237 237 242 247 234 197 221 219 163 195 223 157 141 162 166 159 156 161 181 230 273 5 182 170 184 201 189 198 68 188 145 188 154 115 150 166 187 177 166 194 217 157 138 216 214 223 230 170 208 236 222 229 239 227 231 238 243 250 257 259 111 116 115 100 114 122 105 94 103 172 176 191 188 185 177 184 174 118 332 292 309 332 316 308 307 302 297
243 235 217 153 132 206 226 204 190 162 131 131 129 132 162 155 181 156 124 221 258 103 275 181 212 173 81 153 192 158 149 192 124 161 190 212 146 207 204 216 215 187 227 217 227 164 81 160 212 220 239 234 245 252 242 237 254 53 83 121 142 120 118 119 148 129 113 309 261 208 229 232 236 207 190 200 160 270 273 289 300 282 276 281 284 296 304
241 207 173 178 166 217 206 220 168 149 137 125 90 131 202 120 144 182 183 162 170 201 187 200 201 151 167 184 142 138 178 166 172 176 175 186 152 225 146 190 203 179 246 211 252 131 222 213 219 229 242 239 242 236 149 131 104 82 89 97 113 118 114 122 140 177 202 225 93 93 146 207 200 179 125 251 274 275 275 277 275 280 282 286 290 296 295
152 197 187 145 204 191 333 174 148 124 102 128 222 146 196 180 183 205 121 157 189 232 156 215 184 185 181 182 165 196 175 166 175 194 171 149 157 181 193 107 231 151 226 210 234 86 197 231 233 252 252 231 238 178 119 157 117 105 88 93 98 105 109 100 94 66 82 75 83 76 53 70 56 233 251 268 280 280 276 262 267 274 271 275 286 295 289
210 126 150 198 163 152 141 104 358 33 111 126 105 307 130 187 199 177 147 211 195 218 181 183 145 182 191 187 177 194 174 106 4 89 133 174 153 85 132 176 127 110 218 221 216 91 94 105 238 215 241 229 225 163 135 94 104 99 86 84 88 95 101 95 81 53 72 52 58 28 71 36 113 201 235 249 259 261 267 269 280 283 300 302 295 286 290
198 187 138 88 105 111 107 114 146 100 37 182 149 193 182 202 90 86 208 187 195 162 240 179 181 180 190 184 192 153 184 153 138 138 128 197 188 150 193 194 312 188 228 190 92 71 102 230 235 246 240 222 97 106 133 112 96 113 110 102 103 104 105 99 92 52 76 80 63 346 325 329 293 272 245 252 256 262 278 286 284 279 274 271 270 279 282
131 120 112 102 73 148 123 167 197 150 173 171 119 186 158 155 204 169 195 187 326 120 200 45 328 60 0 49 19 328 164 163 144 147 125 181 118 93 144 159 135 208 214 56 91 90 191 225 235 243 220 202 117 139 113 119 126 121 116 120 111 100 103 106 106 75 4 84 273 295 287 280 270 266 263 253 266 278 267 258 261 267 267 270 267 267 269
84 67 68 135 141 230 145 213 152 90 215 172 174 199 154 167 209 129 132 193 157 187 181 163 184 158 189 178 161 134 118 135 135 82 48 141 112 166 159 200 200 216 61 136 140 202 224 236 230 243 170 96 145 157 147 139 137 120 116 106 100 98 108 101 116 90 338 1 288 287 292 273 272 270 265 253 243 255 266 267 263 264 264 271 271 267 270
129 172 126 131 199 187 118 228 115 176 202 198 196 198 173 203 186 178 194 180 166 186 181 194 170 179 162 192 67 278 137 174 140 122 198 139 134 191 150 211 137 94 170 201 192 287 11 259 245 241 210 161 167 172 150 140 138 136 140 120 126 124 133 127 157 177 223 243 265 270 268 260 263 266 264 261 257 248 260 272 278 281 277 268 268 273 271
182 168 164 165 197 195 175 212 134 199 251 173 198 190 184 204 164 198 211 115 160 148 168 178 164 136 132 263 141 175 122 128 132 191 137 129 144 205 172 57 96 150 172 194 201 214 227 236 231 232 134 167 160 154 143 139 123 126 132 149 163 155 180 164 196 191 232 238 238 222 251 247 249 265 271 268 269 269 262 263 260 255 264 270 269 267 273
177 157 130 190 204 208 125 190 204 202 163 182 188 184 189 196 198 178 150 167 172 159 96 91 134 158 146 168 90 18 54 101 139 189 106 133 178 138 101 151 203 179 194 219 219 234 246 239 222 137 179 145 136 146 144 149 152 154 154 131 136 168 179 182 216 215 249 242 257 257 258 255 254 258 268 277 273 270 269 270 269 263 254 257 265 269 274
188 143 137 179 207 156 181 216 112 49 327 160 237 305 284 305 119 209 243 293 141 136 136 133 118 94 58 306 77 153 140 170 105 254 167 176 63 80 152 143 217 224 189 199 229 228 237 214 188 178 145 140 145 143 152 149 155 153 148 159 166 182 201 208 222 236 218 238 246 256 263 269 264 266 274 282 290 288 285 279 273 269 261 261 262 263 264
106 137 179 189 206 136 222 8 132 194 201 339 289 267 143 158 195 152 135 229 165 164 161 147 158 120 157 142 133 143 186 191 151 197 99 171 158 189 169 211 173 240 240 201 232 223 215 145 119 121 134 137 149 144 139 151 151 163 167 168 184 189 187 222 248 252 263 256 250 255 261 271 281 289 291 294 287 282 278 273 269 270 264 259 263 263 265
101 79 47 91 83 317 253 100 97 269 318 343 356 242 263 203 140 219 199 136 151 123 118 79 74 84 153 125 157 143 184 174 162 142 128 189 187 190 90 218 214 207 230 202 207 222 129 123 129 130 144 145 141 147 144 148 155 155 168 173 172 178 208 226 257 248 245 250 265 271 280 294 284 275 272 273 276 287 296 294 285 275 271 258 245 248 248
342 52 127 5 148 187 134 153 178 200 228 221 201 213 181 200 172 170 197 129 136 112 91 150 164 117 138 84 148 144 209 136 134 189 170 187 142 153 197 220 230 214 222 31 175 140 147 150 142 131 140 157 156 145 143 148 160 160 146 161 180 175 247 243 246 269 281 289 299 304 295 280 267 265 274 288 287 295 298 290 277 262 257 261 242 233 236
107 133 202 145 98 101 131 273 329 284 244 234 155 191 146 174 199 177 185 154 160 166 180 161 119 133 123 182 198 163 48 62 193 87 131 247 157 161 210 213 230 175 178 164 166 142 127 130 147 154 157 157 160 163 148 138 139 148 180 195 193 219 244 264 267 278 297 305 298 278 277 275 279 280 284 282 284 291 273 269 277 274 258 255 255 248 249